Wind_Speed
10 14 17 17 16 15 14 12 12 11 10 8 8 8 7 7 7 8 8 9 8 8 8 8 8 8 7 8 8 8 8 8 8 7 5 3 1 2 6 9 13 16 20 22 21 21 20 19 19 18 19 19 19 19 18 18 19 17 17 17 17 18 19 19 19 19 19 20 22 23 24 26 27 27 27 27 26 26 27 28 29 30 29 28 25
9 13 16 17 16 15 13 12 12 12 10 9 9 9 8 8 8 9 9 9 9 8 9 8 8 7 6 7 7 7 8 8 8 7 5 4 2 1 5 9 13 16 20 23 22 21 20 19 19 18 19 20 19 19 18 18 18 17 17 17 17 18 18 18 17 17 18 19 21 22 24 25 26 27 27 27 27 27 27 27 28 29 30 30 28
8 10 15 17 16 15 14 13 13 13 12 11 10 10 9 9 9 10 10 10 9 9 9 9 7 6 6 6 6 6 8 9 9 8 7 5 3 1 4 9 13 17 21 23 22 21 21 20 19 18 18 20 20 19 18 18 17 16 16 17 17 17 17 16 16 15 16 18 19 21 22 24 25 26 27 27 27 27 27 27 27 28 29 31 31
6 9 14 15 15 15 15 14 14 13 13 12 11 11 10 10 11 11 12 11 11 10 10 9 7 6 6 5 6 6 7 9 9 9 9 7 4 1 2 7 13 16 20 23 22 22 21 21 20 19 19 20 20 19 18 18 17 15 16 16 16 16 16 16 15 14 15 16 18 20 21 23 24 25 26 27 27 27 27 27 27 27 28 30 31
6 9 13 14 15 15 16 16 15 14 13 13 12 12 12 11 12 12 13 12 12 11 10 8 7 6 6 5 5 6 7 8 8 9 10 9 7 3 1 5 10 16 19 22 23 22 22 21 20 20 19 20 20 20 19 18 17 15 15 15 15 15 15 14 14 14 13 14 16 18 20 22 23 24 25 26 27 27 28 28 28 28 28 29 29
6 9 12 14 15 16 17 16 15 15 14 14 14 13 13 13 13 14 14 13 12 11 10 8 7 6 5 5 5 5 6 7 7 8 9 9 9 6 2 2 7 13 18 21 23 23 22 22 21 21 20 20 21 20 19 18 17 15 15 15 14 14 14 13 13 13 13 13 14 16 19 21 21 22 24 25 26 27 27 28 28 28 28 29 29
7 11 12 13 15 16 17 16 15 15 15 15 15 15 14 14 15 15 15 14 13 12 11 9 7 6 6 5 5 5 6 6 7 7 8 9 9 8 5 1 4 10 16 21 23 24 23 23 22 22 21 20 21 20 19 18 17 15 15 14 14 13 12 12 12 12 12 12 13 14 16 19 20 21 22 23 25 26 26 27 28 28 28 29 29
8 12 13 14 15 17 17 16 16 16 17 17 17 16 16 16 16 16 16 14 13 13 11 9 8 7 6 5 5 5 6 6 6 6 6 7 8 7 7 4 2 8 14 20 23 24 24 23 23 22 22 21 21 20 20 19 17 15 14 14 13 12 11 11 11 12 12 12 12 13 15 17 18 19 21 22 23 24 25 26 27 28 28 28 28
10 13 14 15 16 17 18 17 17 17 18 18 18 17 16 17 17 16 15 14 13 12 11 9 8 7 7 5 5 5 5 5 5 5 5 5 6 5 5 5 1 5 12 19 23 24 25 24 23 23 22 22 21 20 20 19 18 16 14 14 13 12 11 11 10 11 12 12 12 13 13 14 16 17 19 20 21 23 24 25 26 26 27 27 28
12 14 15 16 17 18 19 19 18 18 19 19 18 17 16 16 16 16 15 14 13 12 11 10 9 8 6 6 6 5 5 4 4 4 4 4 4 4 4 5 4 3 9 16 23 25 25 25 24 24 23 22 22 20 20 20 18 17 15 14 13 12 11 10 10 10 11 11 11 12 13 13 14 15 17 18 19 21 22 23 24 25 26 26 27
12 14 16 17 18 19 19 19 19 19 19 19 18 17 16 15 15 16 15 14 13 13 11 10 9 7 6 6 6 5 4 4 4 4 3 3 4 4 4 5 5 4 5 12 20 25 26 25 25 24 24 23 23 22 21 20 20 18 16 15 13 12 11 10 10 9 9 10 11 11 12 13 14 14 15 17 18 19 20 21 22 23 24 25 26
13 15 17 18 19 20 19 18 19 19 19 19 18 17 16 14 14 14 14 14 14 14 12 10 8 7 6 6 5 5 5 4 4 4 4 5 5 5 5 5 6 5 5 8 15 23 26 26 25 24 24 24 24 23 22 21 20 19 18 16 14 13 11 10 10 9 8 9 10 10 11 12 13 13 14 15 16 17 18 19 20 21 22 24 24
14 16 17 19 19 19 18 18 19 19 19 19 19 18 17 16 15 13 13 15 15 14 11 9 7 6 6 6 5 5 5 5 5 6 6 6 6 6 6 6 6 6 6 7 11 19 25 27 27 26 25 24 24 24 23 22 21 20 19 17 16 14 12 11 10 9 9 8 8 9 10 10 11 12 12 13 14 15 16 16 18 19 20 21 22
14 16 18 18 18 19 19 19 19 20 19 19 20 21 19 17 17 15 15 16 15 12 10 8 7 5 5 5 5 5 5 5 6 6 7 7 7 7 6 7 6 5 6 7 9 14 22 27 27 27 26 25 25 25 24 23 22 21 20 19 17 16 14 12 11 10 9 8 7 8 8 9 9 9 10 11 12 13 14 14 15 16 17 19 20
15 16 17 17 18 20 20 20 20 20 19 19 21 22 20 18 18 17 16 15 13 11 9 8 6 5 5 5 6 5 6 6 6 7 6 7 7 6 5 5 5 4 5 5 7 10 17 24 27 27 27 26 25 24 24 24 23 22 21 20 19 17 16 14 13 11 10 8 7 7 7 7 7 7 8 9 10 11 12 13 13 14 15 16 18
15 16 16 16 17 20 20 20 20 19 19 20 21 20 19 18 17 16 15 14 12 10 9 8 7 5 5 5 6 6 6 6 6 6 6 7 6 6 4 3 4 4 4 4 4 7 12 19 24 26 27 26 26 24 24 24 24 23 22 21 20 19 17 16 14 13 11 10 8 7 6 6 6 6 5 6 8 8 10 11 11 11 12 14 15
15 13 14 15 16 20 21 20 22 20 19 21 19 16 17 17 17 16 15 14 12 11 10 8 6 5 5 5 5 6 5 5 5 5 6 6 6 5 4 3 4 4 4 4 3 5 9 14 19 23 25 26 26 24 24 23 24 24 23 23 21 20 19 18 16 15 13 12 10 9 8 7 6 5 4 4 5 6 7 8 9 9 10 11 12
14 11 14 16 15 18 18 18 20 20 19 20 17 16 18 18 18 17 16 15 13 11 10 8 6 5 5 5 5 4 4 4 4 5 5 4 4 4 4 3 3 4 4 5 4 4 6 10 14 18 22 24 25 25 24 23 24 24 24 23 23 22 21 19 18 17 15 14 13 11 10 8 7 7 5 4 3 3 4 5 7 8 8 9 10
15 13 17 17 13 15 15 16 18 19 19 18 16 18 19 19 19 18 17 14 12 10 9 7 5 5 5 4 3 3 3 3 4 4 3 3 3 2 2 2 2 3 4 6 6 5 5 6 9 13 17 21 23 23 24 23 23 24 23 23 23 23 22 21 20 18 17 16 15 14 12 11 9 9 8 6 4 1 2 3 4 5 6 7 7
15 15 17 15 13 15 16 18 19 19 19 17 16 19 21 21 21 17 14 13 12 10 8 6 5 5 5 4 3 2 2 3 3 3 3 2 2 1 1 0 1 3 5 6 7 7 6 6 6 8 11 16 19 21 22 23 23 23 23 23 23 23 23 22 21 19 18 17 16 16 15 13 12 11 10 9 7 5 2 1 1 2 4 5 5
16 17 16 14 14 16 17 18 17 15 13 13 17 21 22 22 19 15 13 12 12 10 7 6 5 6 5 3 2 2 3 4 4 3 2 2 2 1 0 0 1 3 5 7 8 8 8 8 8 8 8 11 14 17 20 22 23 23 23 23 23 23 23 23 22 21 19 18 17 16 16 16 14 13 12 12 11 9 6 4 2 1 1 3 4
17 18 17 16 16 17 19 17 15 13 9 13 17 18 18 18 16 15 14 13 11 9 7 5 5 5 4 2 1 3 5 5 4 3 3 3 3 2 1 1 1 3 6 7 8 9 8 9 10 10 10 10 11 13 15 18 21 22 23 23 24 24 23 22 22 22 21 19 18 16 16 16 16 15 14 14 13 11 9 7 5 4 2 2 3
18 18 18 17 18 19 18 14 14 11 10 16 16 14 15 15 16 16 15 14 10 8 6 5 5 5 3 1 2 4 5 5 4 3 3 3 3 3 2 3 3 3 5 7 8 9 9 10 11 11 11 11 11 11 11 13 16 20 22 23 24 25 24 23 22 22 21 20 19 17 17 17 17 16 16 14 13 13 11 10 8 6 5 4 3
16 17 18 17 17 17 15 12 13 11 13 17 15 15 17 16 17 17 14 12 10 8 6 5 6 5 3 1 3 5 5 4 4 4 3 3 3 3 3 4 4 4 4 5 7 8 9 10 11 11 11 11 11 11 11 11 13 15 19 21 23 24 24 23 22 22 22 21 20 18 17 17 17 17 17 16 14 13 13 12 10 9 7 6 5
15 18 18 16 15 16 15 12 12 14 17 17 16 17 16 15 16 17 14 11 9 8 6 6 6 5 3 2 4 5 4 4 4 4 3 3 3 3 4 5 6 6 5 4 4 6 7 8 9 9 10 11 11 11 11 11 11 12 14 17 20 23 23 22 22 21 22 21 21 20 18 17 17 17 17 16 16 14 13 13 12 11 10 9 8
17 18 16 15 17 16 15 13 13 17 20 19 17 16 14 13 13 14 13 10 8 7 6 5 5 5 4 4 4 5 4 3 4 4 3 3 3 5 6 6 6 6 5 5 4 3 4 5 6 7 9 10 11 12 12 11 9 9 11 13 16 19 20 20 20 20 20 21 21 20 19 18 17 17 17 17 16 15 14 14 13 12 12 11 10
13 11 12 13 17 16 14 15 15 19 20 19 17 14 12 12 12 12 10 9 7 6 5 5 5 5 5 5 4 5 4 4 5 5 5 4 5 5 7 7 7 6 6 5 4 3 2 2 3 5 7 9 10 10 9 7 6 6 8 11 13 15 17 17 18 18 19 20 20 20 19 18 17 17 17 16 16 16 15 15 14 14 13 13 12
6 5 9 10 14 17 16 19 20 20 19 20 20 15 12 11 11 11 9 8 7 6 6 5 6 6 6 5 4 5 5 6 6 7 7 7 7 7 7 8 8 6 6 6 4 3 3 2 2 3 4 5 5 5 4 4 4 5 7 9 11 12 13 14 15 17 18 18 19 19 19 18 17 17 17 17 17 17 16 16 15 15 15 14 14
6 6 10 9 11 14 18 21 19 18 16 16 17 15 12 9 8 7 6 6 6 6 7 7 7 8 7 7 6 7 8 7 7 8 9 9 10 9 9 8 7 7 6 5 4 3 2 1 2 3 4 5 5 5 6 6 6 6 7 8 9 10 10 11 13 14 15 16 17 17 18 17 16 16 16 17 17 17 17 17 16 16 16 16 15
8 7 8 7 11 16 20 20 17 16 13 13 12 12 11 8 6 5 4 4 5 7 8 8 9 10 9 9 8 8 9 9 8 8 10 11 11 10 9 9 9 8 8 7 4 3 1 1 2 3 4 5 5 6 7 8 10 8 8 8 7 8 8 9 10 10 11 13 14 15 15 16 16 15 15 15 17 17 18 18 17 17 17 17 17
8 5 4 10 17 21 22 20 18 15 12 12 10 9 10 7 5 3 3 4 6 7 8 9 10 11 11 11 10 9 10 10 10 10 11 12 12 11 10 10 10 10 9 7 5 4 3 3 3 4 5 5 5 5 5 6 9 8 7 8 6 6 6 7 8 9 10 10 12 13 14 15 15 14 14 14 15 16 17 17 18 18 18 18 18
8 9 12 17 20 21 22 19 17 15 12 11 9 6 6 5 4 3 3 4 6 7 9 10 10 11 12 12 10 10 11 12 11 11 11 11 11 12 12 12 11 11 9 8 7 6 5 4 4 4 4 3 3 3 3 3 5 6 6 8 7 7 8 8 8 9 9 9 10 11 13 15 15 15 14 14 15 16 17 17 18 19 19 19 18
8 12 15 16 16 17 21 19 16 16 12 11 10 6 3 3 3 2 2 4 6 8 9 10 11 12 13 12 11 12 14 13 11 11 13 12 11 13 13 12 10 9 9 9 8 7 6 5 5 4 3 2 3 3 3 3 3 4 5 6 6 6 6 7 8 9 9 9 9 10 10 13 14 14 14 15 15 15 16 17 18 19 19 19 19
11 12 14 14 15 17 20 20 17 15 12 9 9 6 3 3 3 1 1 4 6 8 10 11 12 13 13 13 14 16 15 12 12 14 15 14 12 13 12 10 9 8 9 10 10 9 8 8 6 5 4 3 4 3 3 2 3 4 5 5 5 4 4 4 7 9 9 10 11 10 11 12 13 12 13 14 14 14 15 16 17 18 19 19 19
12 13 14 15 17 16 16 17 14 11 9 9 9 7 5 5 4 2 1 4 6 8 9 11 12 13 13 13 14 17 15 13 14 16 15 14 12 12 11 10 10 9 9 10 11 10 10 9 8 7 6 5 4 4 4 4 4 4 3 3 3 2 2 2 4 6 8 10 11 12 14 14 13 12 12 13 13 13 14 15 16 17 18 19 19
11 12 13 14 15 12 11 13 11 9 11 11 10 9 8 8 7 5 3 2 4 6 8 9 10 12 13 13 14 16 15 13 15 16 14 13 13 12 11 10 11 10 10 11 11 11 11 8 7 8 8 6 5 5 5 4 4 4 4 3 2 2 3 4 5 6 7 9 11 14 15 15 13 13 13 13 14 14 14 15 16 17 18 18 19
11 10 12 14 14 13 12 12 11 12 13 11 10 11 10 9 9 9 7 6 5 5 6 8 9 11 12 13 14 15 14 12 14 15 14 13 13 12 12 11 10 10 11 12 11 11 12 11 8 6 6 5 5 5 4 4 4 4 4 4 4 5 5 6 6 7 8 9 10 12 14 14 15 14 14 15 16 16 15 14 14 15 16 17 18
11 12 14 17 16 15 14 14 13 13 13 12 11 11 10 10 10 10 9 9 8 7 6 6 7 9 10 12 12 13 13 12 13 15 15 14 14 12 12 11 10 10 10 12 12 12 12 13 13 8 6 5 5 5 5 5 5 6 6 5 6 6 6 7 7 7 8 9 10 12 13 14 15 16 16 16 15 15 16 15 15 16 17 18 18
11 13 16 16 15 13 13 14 14 13 12 12 11 11 11 11 11 10 10 10 10 10 9 8 7 7 8 9 11 12 12 12 12 14 15 15 15 14 13 11 11 11 11 12 13 13 12 13 16 11 6 5 5 6 7 7 7 8 8 7 7 7 7 7 8 8 8 8 9 10 14 15 15 16 17 15 14 16 18 17 17 19 19 19 19
11 14 15 15 14 13 14 14 14 13 12 12 11 10 10 9 9 9 10 11 11 11 12 11 9 7 6 8 10 11 12 12 11 12 13 14 14 14 13 12 11 11 12 13 14 13 12 12 16 14 6 5 6 7 8 9 10 10 9 8 8 8 8 9 10 10 9 8 7 6 11 15 15 15 16 15 15 17 17 17 17 18 19 19 19
11 13 15 16 16 15 17 17 17 17 14 12 10 9 8 7 7 7 8 10 12 12 12 12 11 8 5 7 10 12 12 12 11 11 12 12 11 12 12 11 11 12 12 13 14 14 13 13 15 15 11 8 7 9 10 11 11 11 10 9 9 8 9 10 11 11 9 7 6 6 7 11 11 10 12 13 15 15 16 16 16 17 18 19 18
12 14 15 17 18 18 19 20 20 19 16 13 11 8 7 6 5 5 7 9 12 13 13 13 13 10 6 5 9 12 13 13 12 12 12 11 11 11 11 11 11 12 13 13 14 14 14 14 14 13 13 10 9 10 11 11 12 11 10 10 9 9 9 11 11 11 10 8 8 8 7 6 4 4 6 8 11 13 13 14 15 16 18 19 19
14 15 17 18 20 21 22 22 21 20 17 15 12 9 7 6 5 5 6 8 11 13 14 14 13 12 9 6 5 9 12 14 14 14 13 13 12 12 12 12 12 12 12 12 12 12 13 13 13 14 14 12 11 11 10 11 12 11 11 10 9 9 10 11 11 11 10 9 9 8 7 5 4 4 6 6 8 10 11 12 14 15 16 17 18
17 18 19 20 22 25 25 24 22 20 17 14 11 8 6 5 5 5 6 7 9 12 13 13 13 12 10 7 5 5 8 11 13 14 14 13 13 13 12 12 12 12 12 12 13 13 14 15 16 17 16 15 14 12 11 11 11 11 11 10 9 10 11 10 10 10 10 9 9 7 6 6 6 6 7 7 7 8 10 11 13 14 15 15 16
18 18 20 20 22 26 26 23 21 18 14 12 9 6 4 4 4 4 5 6 7 9 12 12 13 12 11 8 6 4 4 6 8 11 13 14 14 14 14 14 14 14 14 15 16 17 17 18 19 18 18 17 16 14 13 12 11 11 10 10 9 10 11 10 9 9 9 9 7 6 6 7 8 9 9 9 8 8 9 10 11 12 12 12 14
18 22 26 26 26 28 27 23 20 16 13 10 7 4 2 2 2 3 4 5 6 7 9 11 12 12 11 10 8 5 4 4 5 6 8 11 12 13 14 14 14 14 14 15 15 16 17 17 18 18 19 19 17 16 15 12 11 11 10 10 10 9 10 9 9 9 9 8 7 7 8 9 9 10 10 10 9 9 10 10 10 10 10 10 10
26 31 30 25 23 26 26 22 20 16 13 10 7 4 3 2 1 1 2 3 4 5 7 9 10 11 11 10 9 7 5 4 3 4 5 5 6 7 8 9 10 10 11 11 11 11 11 12 13 15 17 19 18 17 15 13 11 10 10 9 9 9 9 8 8 8 9 8 7 8 9 9 10 9 9 8 8 9 10 10 11 11 10 9 8
27 24 20 18 17 19 20 20 18 16 13 11 9 7 5 4 4 3 2 2 3 5 5 7 8 9 10 8 8 8 6 6 5 4 4 4 4 4 4 5 6 7 7 7 6 6 6 7 8 10 12 14 16 16 15 14 12 11 9 6 6 7 7 7 7 7 9 8 7 8 8 8 9 8 7 6 7 8 8 9 10 10 10 8 7
16 13 16 19 15 15 14 16 15 14 14 12 11 10 9 8 7 7 6 5 4 5 6 7 7 8 9 7 5 6 6 5 5 5 5 5 5 4 3 3 3 4 4 3 3 3 3 3 4 5 7 9 11 13 13 12 12 11 8 6 6 7 7 8 8 8 9 9 7 7 7 7 7 6 6 6 6 7 7 8 8 9 9 7 6
11 9 14 17 16 19 15 14 13 13 14 13 13 12 11 11 10 10 10 9 6 6 7 7 7 8 9 7 4 4 4 4 5 5 6 5 5 3 1 1 2 2 2 2 1 1 1 1 1 1 2 4 6 8 9 9 9 8 7 6 6 7 7 8 8 8 9 8 6 5 5 5 5 4 4 4 5 5 6 7 7 7 7 6 5
8 8 11 13 12 18 17 17 17 16 15 15 14 13 14 14 14 13 12 12 10 8 8 6 7 7 8 7 5 4 3 3 3 5 5 5 4 3 2 3 3 3 3 2 2 2 2 3 3 3 4 3 3 5 6 7 6 5 5 5 6 6 6 6 6 6 6 5 4 4 4 4 4 3 2 2 3 3 4 5 5 5 4 4 3
Wind_Direction
241 232 230 228 230 226 222 219 217 212 200 188 177 171 166 162 152 144 143 146 146 143 134 122 109 96 92 90 83 75 68 61 56 61 75 82 82 147 170 177 176 175 174 174 174 171 169 166 161 159 151 144 143 141 137 130 124 119 113 108 103 99 96 92 90 87 82 78 75 73 71 69 67 67 66 65 65 64 62 61 60 59 60 60 59
234 236 232 227 228 226 226 222 218 213 202 190 183 178 173 169 160 153 152 155 157 153 144 131 117 106 100 97 90 81 74 67 59 55 61 78 88 151 171 179 181 179 178 177 177 175 172 169 166 163 155 148 148 146 141 134 129 124 118 113 108 104 100 94 90 86 82 79 77 74 71 70 68 67 66 65 65 64 63 62 60 59 58 59 59
213 222 226 227 228 230 233 227 219 214 205 193 187 184 179 176 168 163 163 165 166 161 151 139 128 119 109 101 92 87 83 75 66 55 47 56 76 128 177 182 185 184 182 181 180 178 175 173 170 167 160 152 152 151 145 138 134 130 123 118 113 107 102 98 92 87 82 80 78 75 72 70 69 68 66 65 64 64 63 62 61 59 58 58 57
215 207 217 225 229 234 238 230 220 216 208 196 190 187 184 182 176 172 172 173 173 167 156 146 138 128 116 104 95 92 92 85 75 64 48 39 50 85 187 189 189 189 186 184 183 181 179 177 174 171 165 157 156 156 149 143 140 135 129 124 117 112 106 101 95 88 82 79 78 77 73 71 69 68 67 66 64 63 63 62 61 60 58 57 56
232 212 216 224 230 236 237 230 222 217 210 200 194 191 189 186 183 180 179 179 176 171 161 152 144 135 126 115 106 103 99 92 84 73 58 38 29 43 177 202 196 194 191 188 187 186 183 180 178 175 170 163 160 160 155 149 146 142 136 130 124 117 111 104 97 90 84 80 78 78 76 72 69 68 67 66 65 63 62 62 61 60 59 57 56
237 227 223 225 231 235 233 229 223 218 213 204 198 193 191 190 188 186 185 184 179 173 165 158 150 143 137 130 124 118 109 98 87 78 66 47 26 19 23 214 206 200 196 194 191 189 188 185 182 180 175 168 165 165 161 156 153 149 143 137 131 124 117 109 100 93 86 81 78 78 78 75 70 68 67 66 65 64 63 61 60 60 59 57 56
232 232 228 228 233 234 230 229 225 220 214 207 201 196 193 193 192 190 189 187 182 175 170 163 157 153 151 147 139 125 110 97 85 76 67 55 34 13 4 333 215 210 203 199 196 193 192 190 187 184 180 174 170 170 167 163 159 156 151 144 138 132 123 114 105 97 89 83 81 78 79 77 73 69 67 65 64 64 62 61 60 59 59 58 57
229 231 229 232 235 235 232 231 229 221 214 208 203 198 195 196 195 193 190 188 184 178 173 167 164 165 165 159 141 123 104 96 84 75 67 57 42 19 358 352 219 216 211 204 202 198 196 194 190 188 185 179 175 174 173 169 165 162 157 151 146 140 131 120 111 103 95 88 85 82 79 79 76 72 68 65 63 63 62 61 60 59 59 58 57
231 233 233 236 239 239 235 233 230 222 216 210 206 201 198 198 196 194 191 188 184 179 175 172 173 176 174 159 133 119 107 97 84 72 65 58 44 26 356 338 312 211 213 208 205 203 200 197 194 191 189 185 181 178 178 176 171 169 165 159 155 150 141 130 119 110 103 95 89 87 83 80 78 75 71 67 63 61 61 60 60 59 59 58 57
235 235 236 240 243 242 235 231 228 223 218 212 208 204 202 201 198 195 191 187 183 180 178 178 181 181 170 148 127 116 108 93 74 62 49 48 35 16 352 324 305 224 209 211 208 206 204 201 198 195 192 189 186 182 182 183 178 176 174 169 165 161 152 142 131 121 113 103 95 92 89 83 80 77 74 69 65 61 60 59 59 59 58 57 57
239 241 241 242 241 239 232 226 224 222 219 214 209 206 204 200 199 197 192 187 182 182 183 184 183 177 158 136 122 112 97 77 55 41 24 14 13 1 338 312 292 262 209 211 211 209 207 205 202 199 196 193 192 188 187 189 185 183 182 179 176 172 165 156 146 136 125 114 104 97 94 89 83 79 76 73 68 63 60 58 58 58 57 57 56
241 242 242 241 238 234 226 220 219 219 219 216 210 207 203 194 193 195 190 185 184 186 185 182 178 170 149 130 116 102 81 59 34 16 7 354 355 348 322 301 284 267 226 210 212 212 211 208 206 203 200 197 196 193 191 194 191 189 189 187 186 184 179 172 162 152 143 129 116 106 99 95 89 82 76 74 71 66 62 59 57 57 57 56 56
239 241 243 242 238 232 225 218 216 218 219 217 210 204 198 189 186 187 185 185 188 186 180 176 174 164 141 124 107 89 69 44 23 9 3 353 348 343 324 302 282 269 244 218 211 212 212 211 209 207 204 201 200 198 196 197 196 195 196 194 194 194 191 188 181 171 163 152 135 121 111 103 97 90 81 75 73 69 64 60 58 57 57 57 56
236 241 243 242 238 233 227 220 218 219 217 214 210 203 195 187 184 183 186 189 187 179 174 175 168 154 134 115 96 78 61 42 29 19 8 0 355 350 334 312 295 282 264 237 219 212 212 212 212 210 209 205 203 203 200 201 201 199 200 200 200 201 200 199 197 190 182 174 160 140 126 116 107 99 89 80 74 72 68 63 60 58 58 58 57
237 240 240 240 237 233 228 222 221 221 217 211 211 204 192 186 181 179 187 190 180 174 175 171 159 148 132 107 89 76 63 51 36 24 11 4 360 356 343 321 303 285 274 255 233 219 213 213 213 212 212 210 207 206 204 205 206 205 205 205 206 207 207 207 207 207 203 196 186 168 150 135 123 112 99 88 79 75 74 68 63 60 59 59 59
239 239 240 235 233 234 228 223 220 220 221 215 212 204 187 180 176 177 187 185 173 176 176 164 161 150 123 100 87 77 65 49 30 15 4 360 359 355 350 329 298 283 273 263 237 222 217 215 214 213 214 213 210 208 207 209 211 210 210 210 211 212 213 214 214 216 217 215 208 199 184 165 149 135 118 101 87 78 78 76 70 65 62 60 60
241 238 239 229 229 233 221 219 217 215 223 217 209 196 179 178 177 177 181 176 171 175 173 166 162 142 113 99 90 78 60 37 18 6 0 359 358 350 347 331 296 285 267 257 237 218 217 219 217 215 215 215 214 211 209 210 214 214 214 215 215 217 219 219 219 220 223 226 225 220 212 200 186 168 151 126 100 82 78 81 79 74 68 63 62
240 228 225 220 229 235 222 222 216 210 219 214 200 184 177 180 178 174 172 171 171 171 170 167 154 131 117 108 95 75 49 19 8 2 1 358 355 350 347 340 305 282 262 252 239 216 213 220 221 218 216 216 217 216 212 211 215 216 217 218 219 221 223 224 224 223 224 228 232 232 228 221 214 203 192 177 139 95 78 81 84 82 77 71 67
239 223 214 216 228 238 234 233 223 216 218 206 189 181 178 177 173 170 169 168 164 167 169 162 148 135 130 121 100 68 38 3 358 356 358 354 352 353 356 352 304 271 258 251 244 227 211 216 220 219 217 218 219 219 217 215 217 219 219 220 222 224 226 227 228 228 226 227 231 236 237 232 226 222 217 214 211 183 92 79 85 88 85 81 74
239 227 220 225 233 240 235 228 227 219 206 191 182 179 176 169 165 163 162 161 158 166 169 155 149 150 155 141 104 59 25 351 343 347 350 350 342 345 14 42 260 256 253 250 248 237 221 218 217 212 211 215 219 221 221 219 220 222 222 222 223 225 227 229 230 231 230 229 229 233 239 239 234 229 227 228 231 236 242 256 95 93 93 91 87
237 231 226 228 232 239 228 221 224 209 185 176 180 179 170 159 157 156 157 160 159 162 162 154 162 173 174 149 94 21 356 342 335 339 334 325 316 312 342 197 235 245 249 246 243 240 228 222 221 215 205 206 213 219 222 222 222 224 225 224 224 226 228 229 231 233 233 232 230 230 235 239 240 235 231 233 236 242 248 255 258 237 115 110 108
236 231 223 223 226 231 226 223 218 206 182 170 174 172 159 151 154 157 160 160 156 157 162 168 180 188 182 144 36 344 339 334 331 326 307 295 287 270 231 198 224 243 252 248 244 241 232 225 224 221 215 208 207 211 216 219 221 223 225 226 226 227 228 229 230 233 234 235 234 231 232 235 240 241 237 236 238 243 247 252 255 255 239 173 147
242 233 219 218 221 224 225 218 207 197 168 160 162 159 153 154 158 157 160 158 153 158 170 183 186 193 190 176 319 327 329 327 320 308 289 281 279 258 225 197 202 231 250 252 248 242 235 229 225 222 219 214 211 210 210 212 217 220 223 224 226 227 228 229 230 232 234 236 236 234 232 232 236 241 243 241 240 242 245 248 250 251 248 229 197
253 245 224 217 222 228 225 206 198 183 153 153 151 148 155 162 161 158 162 159 156 164 177 183 184 198 220 267 313 320 320 315 304 300 285 272 269 241 223 214 214 219 232 245 245 241 235 229 226 223 220 216 214 215 214 213 215 217 220 222 224 226 226 228 229 231 233 236 237 237 235 233 234 238 243 246 245 243 243 245 246 245 244 240 227
265 250 225 214 220 228 219 198 190 171 148 146 142 140 154 171 167 158 160 163 165 172 178 181 189 212 250 291 310 307 300 294 292 295 277 261 250 226 225 226 222 221 222 226 229 231 232 230 226 222 221 221 220 222 224 224 222 217 218 221 222 224 225 226 228 229 232 235 237 238 237 236 235 237 240 245 247 246 243 242 242 242 241 240 235
277 253 221 205 209 215 207 187 176 160 142 136 138 139 154 171 170 159 160 170 176 180 185 192 208 227 257 281 287 280 275 279 280 276 267 259 247 232 226 226 223 221 217 206 199 209 222 229 229 226 225 228 230 233 238 238 231 217 212 216 221 223 224 225 227 229 231 233 236 238 239 238 237 238 239 242 246 247 244 241 240 240 238 236 234
295 261 226 213 209 211 195 167 150 145 138 135 138 142 156 163 160 159 162 173 184 194 207 220 234 243 256 267 268 264 262 259 259 255 256 259 253 240 228 225 225 223 212 195 184 180 188 203 218 225 227 230 235 237 240 240 228 211 202 207 216 221 223 225 227 229 231 233 236 240 241 241 240 240 240 242 244 246 244 242 239 237 235 234 233
314 277 244 236 220 212 177 146 131 135 147 151 150 151 164 164 154 155 158 174 195 211 230 243 246 254 263 269 266 256 250 242 247 250 251 251 246 238 229 226 224 220 206 195 189 179 176 180 180 187 196 201 203 198 185 173 182 190 186 195 208 215 220 223 227 229 231 234 236 240 244 245 244 242 242 242 243 244 244 242 239 236 235 234 233
338 306 261 246 220 193 146 131 129 138 153 154 152 152 154 151 147 153 164 188 215 227 242 248 248 258 268 273 263 246 241 239 242 248 250 247 239 235 231 229 232 227 213 209 208 195 190 197 185 165 158 157 154 149 144 143 152 166 172 182 197 205 212 218 222 227 231 234 238 241 245 247 247 244 242 242 242 243 243 242 239 237 235 235 233
2 324 257 221 182 159 131 127 131 137 144 137 140 144 141 145 151 163 187 213 233 239 247 248 250 259 265 267 258 240 235 237 241 244 245 239 234 235 233 232 237 235 228 230 227 206 194 190 200 183 166 160 159 153 148 151 148 149 164 172 184 197 206 217 218 223 228 232 237 241 246 249 248 245 241 240 241 242 242 241 240 238 237 236 235
28 40 183 161 143 138 129 129 131 133 134 124 124 130 135 151 159 170 215 235 247 250 249 248 251 256 259 258 249 237 229 231 237 240 242 236 231 233 237 237 234 234 236 238 226 197 177 174 185 192 190 185 180 168 153 152 145 142 162 163 165 188 201 216 217 218 223 227 234 236 241 246 246 244 238 235 237 238 240 240 239 238 237 236 235
62 95 139 147 136 135 134 134 136 134 132 126 120 115 127 148 158 187 232 251 257 259 258 255 255 256 255 253 252 245 229 227 234 240 246 243 234 230 234 239 236 238 241 239 228 203 176 174 189 195 197 187 178 172 144 128 132 141 159 155 162 189 194 202 208 217 219 221 235 239 241 243 242 243 239 234 232 234 235 236 237 236 235 234 234
99 119 141 154 157 158 148 143 142 136 136 136 122 108 121 143 148 184 250 267 265 263 264 263 261 258 254 248 247 244 232 228 232 238 243 242 234 226 228 235 240 243 237 231 230 220 194 176 193 193 167 139 142 155 140 118 122 138 146 142 151 174 178 182 195 217 221 214 225 235 245 249 244 243 243 238 233 233 234 234 236 236 235 234 233
119 135 148 160 166 170 164 158 149 136 133 131 120 123 138 124 117 119 274 268 265 260 261 261 260 257 253 244 236 237 234 228 232 239 236 233 231 227 227 229 231 232 224 222 230 241 225 188 182 173 142 136 143 151 172 174 160 146 138 138 136 142 147 161 183 209 221 219 223 223 230 243 247 249 250 247 241 238 239 238 238 238 238 236 234
121 136 147 154 158 166 171 159 144 137 131 120 125 138 127 101 100 106 181 253 262 261 262 263 261 259 256 250 239 237 234 223 232 242 236 231 233 231 230 226 225 223 217 226 238 251 240 196 175 166 156 160 160 166 191 193 179 168 162 152 138 143 173 195 198 209 215 220 226 224 223 229 238 246 247 246 243 239 238 237 237 238 238 237 236
126 139 145 150 155 148 145 143 136 135 125 119 128 125 108 97 91 81 67 319 288 280 275 270 267 263 258 253 243 238 233 221 226 239 236 232 234 233 232 229 229 229 229 240 242 241 244 225 188 172 167 170 180 190 195 200 210 216 227 223 224 237 235 241 242 242 236 228 228 228 228 227 228 234 236 237 237 234 233 234 235 238 238 238 237
140 140 143 146 142 124 127 138 130 122 123 129 130 115 104 95 82 70 58 37 7 329 300 283 272 264 256 251 243 238 235 224 221 231 235 233 232 232 232 233 235 236 237 242 239 235 248 256 239 199 177 178 193 210 216 220 229 232 236 237 246 257 256 250 249 253 254 250 246 239 234 230 227 228 232 235 237 237 235 236 238 241 243 243 242
148 140 147 149 141 125 126 134 127 128 138 141 129 116 109 96 83 72 60 48 34 16 347 314 287 268 256 250 244 239 237 231 223 227 232 230 230 230 228 231 238 239 233 234 239 242 249 261 261 234 186 191 210 220 240 239 233 237 240 243 254 263 264 258 251 252 260 266 265 252 238 234 230 228 231 234 238 242 241 241 244 248 251 252 252
152 145 152 157 154 141 133 130 131 142 151 147 134 123 112 96 85 73 59 51 40 28 17 360 333 294 265 252 246 240 237 234 228 227 228 228 229 229 226 228 235 238 237 239 243 245 246 256 264 254 198 192 220 226 244 250 250 252 245 245 259 267 269 267 259 260 273 286 287 264 240 235 235 232 233 234 237 243 245 247 250 253 254 255 256
167 160 159 161 163 156 145 135 141 159 166 158 144 128 113 98 83 68 55 47 39 32 25 18 4 336 282 250 241 236 234 233 230 227 226 228 230 230 230 230 233 238 245 250 250 248 251 256 263 268 256 220 226 238 250 256 258 257 250 250 258 262 266 270 270 272 282 293 305 287 242 234 235 233 234 236 238 245 249 249 249 251 251 249 249
187 179 173 168 165 158 151 151 159 169 170 163 154 141 126 110 87 66 49 41 36 32 26 23 17 2 312 248 234 231 232 233 231 225 223 226 229 230 231 232 236 243 250 255 254 252 255 256 259 268 267 247 240 248 254 255 254 252 250 253 256 259 265 271 274 274 278 283 286 286 250 230 225 229 235 233 235 242 248 248 247 249 250 247 246
199 192 187 182 178 168 162 168 170 169 170 169 165 158 143 126 101 72 43 33 31 28 24 20 18 13 353 281 238 231 232 234 232 227 225 226 226 229 231 234 237 242 248 251 253 254 255 255 256 262 263 259 256 252 250 252 252 248 245 250 256 259 263 266 269 267 267 271 268 266 258 240 216 220 234 224 224 234 239 242 246 250 250 250 250
204 196 194 191 188 181 175 175 173 171 175 174 171 166 148 128 103 73 45 32 26 24 22 17 14 13 4 337 269 240 234 234 236 236 234 232 230 233 234 236 236 236 239 241 245 251 254 251 251 256 262 265 263 255 248 246 245 244 243 247 252 254 259 261 261 261 260 261 262 260 256 257 247 235 240 235 231 236 239 239 242 246 250 252 254
209 201 199 197 193 188 182 177 175 176 177 178 180 170 142 117 89 64 49 37 27 23 20 14 9 6 3 351 314 263 241 236 237 239 240 240 240 241 240 238 237 237 239 241 244 251 254 254 255 257 259 260 259 253 244 237 239 243 244 245 245 246 250 250 251 257 261 261 264 266 265 268 267 263 268 270 260 250 248 246 244 246 250 254 257
214 210 207 204 198 190 182 175 174 177 178 182 188 176 141 108 81 66 55 42 33 28 21 13 6 360 356 350 332 290 254 241 237 237 237 238 240 241 244 245 246 250 253 254 257 259 260 259 258 257 255 255 252 246 239 233 236 243 244 244 242 240 240 243 249 257 260 263 267 272 274 278 278 278 280 279 271 261 255 252 250 250 252 255 257
218 217 210 204 196 185 177 177 178 178 179 182 191 199 182 128 92 77 64 46 33 29 24 15 5 355 349 345 337 320 286 255 239 236 234 233 235 238 243 248 253 257 260 261 263 263 263 262 261 260 258 255 249 242 237 232 234 240 241 241 240 239 241 245 252 255 255 258 264 270 275 279 281 282 283 279 270 260 255 251 248 248 251 254 258
215 217 211 204 194 178 174 183 185 179 181 187 195 206 208 214 223 54 52 42 21 14 21 16 6 353 343 341 338 328 312 289 264 246 242 238 238 240 244 249 253 256 257 258 259 259 260 261 261 259 256 251 244 241 239 235 235 239 241 240 238 242 247 247 247 250 257 264 271 278 283 286 287 287 285 277 264 253 247 244 243 245 249 252 257
223 225 222 216 194 169 174 187 188 186 186 192 203 213 222 239 264 285 303 327 336 337 352 2 360 349 337 337 338 328 314 300 287 273 271 272 272 270 264 261 256 254 253 250 249 249 251 253 256 257 253 248 243 242 243 239 236 236 237 237 235 238 244 247 246 249 260 271 280 285 289 291 291 291 284 273 262 252 243 239 239 242 247 251 260
247 250 242 228 182 152 182 193 190 199 201 205 214 221 228 237 255 265 269 278 290 304 316 332 341 338 332 331 336 330 311 289 277 273 276 278 281 279 265 250 237 233 230 226 225 226 236 244 252 260 256 249 246 244 243 239 235 234 234 233 236 241 247 252 255 260 267 275 283 287 287 283 285 289 286 277 269 263 258 254 250 249 253 258 269
262 264 261 243 182 162 186 193 192 204 209 219 226 233 239 241 249 256 260 265 268 281 293 308 321 325 328 328 333 338 314 280 260 256 258 261 266 260 217 164 157 168 172 170 162 161 181 190 193 218 220 224 232 234 234 233 231 231 233 236 243 251 257 260 264 269 275 281 287 289 287 282 279 282 283 278 274 275 280 282 280 275 271 271 270
246 252 267 269 215 188 185 183 195 207 211 221 230 241 252 251 251 255 257 259 261 267 274 287 305 311 318 325 332 341 321 274 241 230 227 226 216 186 148 120 120 121 120 119 109 98 90 90 96 94 104 137 177 205 218 226 232 235 240 243 245 248 252 257 262 268 278 290 300 296 291 288 283 276 268 263 269 285 302 311 318 313 292 268 248
Height
3151 3152 3152 3153 3154 3156 3156 3157 3158 3158 3158 3158 3158 3159 3159 3160 3161 3161 3162 3163 3163 3164 3165 3166 3166 3167 3168 3168 3169 3169 3170 3169 3169 3169 3169 3169 3169 3170 3170 3171 3172 3173 3174 3174 3175 3175 3176 3177 3178 3178 3179 3180 3181 3182 3182 3183 3183 3184 3185 3185 3185 3186 3186 3186 3186 3186 3186 3186 3186 3185 3185 3184 3184 3183 3182 3181 3180 3179 3179 3178 3177 3176 3174 3173 3172
3150 3151 3152 3153 3154 3155 3156 3156 3157 3157 3157 3157 3157 3158 3159 3160 3161 3161 3162 3162 3163 3164 3165 3165 3166 3167 3168 3168 3169 3170 3170 3170 3170 3170 3170 3170 3170 3170 3170 3171 3172 3173 3174 3175 3175 3176 3176 3177 3178 3179 3180 3180 3181 3182 3183 3184 3184 3185 3185 3186 3186 3187 3187 3187 3187 3187 3187 3187 3187 3187 3186 3186 3185 3184 3183 3182 3181 3181 3180 3179 3179 3178 3176 3174 3174
3149 3150 3151 3153 3153 3154 3155 3155 3156 3156 3156 3156 3157 3157 3158 3159 3160 3161 3161 3162 3163 3164 3165 3166 3166 3167 3168 3169 3169 3170 3170 3170 3170 3170 3170 3170 3170 3170 3171 3171 3172 3173 3174 3175 3176 3177 3177 3178 3179 3180 3180 3181 3182 3183 3183 3184 3185 3185 3186 3186 3187 3188 3188 3188 3188 3188 3188 3188 3188 3188 3188 3187 3187 3186 3185 3184 3183 3182 3182 3181 3180 3179 3178 3176 3175
3148 3149 3151 3152 3153 3153 3154 3154 3154 3155 3156 3156 3156 3157 3158 3158 3159 3160 3161 3162 3163 3164 3165 3166 3166 3167 3168 3169 3169 3170 3170 3170 3170 3171 3171 3170 3171 3171 3171 3171 3172 3173 3174 3175 3176 3177 3178 3178 3179 3180 3181 3181 3182 3183 3184 3185 3186 3186 3186 3187 3188 3188 3189 3189 3189 3189 3189 3190 3190 3189 3189 3189 3188 3187 3187 3186 3185 3184 3183 3183 3182 3181 3180 3178 3177
3149 3149 3150 3151 3152 3152 3152 3153 3153 3154 3155 3155 3156 3156 3157 3158 3159 3159 3160 3161 3163 3164 3165 3166 3166 3167 3168 3168 3169 3169 3170 3170 3171 3171 3171 3171 3171 3171 3171 3172 3172 3173 3174 3176 3176 3177 3178 3179 3179 3180 3181 3182 3183 3184 3185 3185 3186 3187 3187 3188 3188 3189 3189 3190 3190 3190 3190 3191 3191 3191 3190 3190 3190 3189 3188 3187 3186 3186 3185 3184 3183 3183 3181 3180 3179
3148 3149 3150 3151 3151 3151 3151 3152 3152 3153 3154 3155 3155 3156 3156 3157 3158 3158 3159 3161 3162 3164 3165 3166 3166 3167 3168 3168 3168 3169 3170 3170 3171 3171 3171 3171 3171 3171 3171 3172 3172 3173 3174 3175 3176 3177 3178 3179 3180 3181 3182 3182 3183 3184 3185 3186 3187 3187 3187 3188 3189 3189 3190 3190 3191 3191 3191 3192 3192 3192 3191 3191 3191 3190 3190 3189 3188 3187 3187 3186 3185 3184 3183 3182 3181
3148 3148 3149 3150 3150 3150 3150 3150 3151 3152 3153 3153 3154 3154 3155 3156 3156 3157 3158 3160 3162 3163 3164 3165 3166 3167 3167 3168 3168 3169 3169 3170 3171 3171 3171 3171 3171 3171 3171 3172 3173 3173 3174 3175 3176 3177 3178 3179 3179 3180 3181 3182 3183 3184 3185 3186 3187 3187 3188 3188 3189 3190 3190 3191 3191 3192 3192 3192 3193 3193 3193 3192 3192 3192 3191 3190 3190 3189 3188 3187 3187 3186 3185 3184 3183
3147 3148 3148 3149 3149 3149 3149 3150 3150 3151 3152 3152 3152 3153 3154 3155 3155 3156 3158 3160 3162 3163 3164 3165 3166 3166 3167 3167 3168 3168 3169 3170 3170 3171 3171 3171 3171 3171 3171 3171 3172 3173 3174 3175 3176 3177 3177 3178 3179 3180 3181 3182 3183 3184 3185 3186 3187 3188 3188 3189 3190 3190 3191 3192 3192 3192 3193 3193 3193 3194 3194 3193 3193 3193 3192 3192 3191 3190 3190 3189 3188 3188 3187 3186 3185
3146 3147 3147 3148 3148 3148 3148 3149 3149 3150 3150 3150 3151 3152 3153 3154 3155 3156 3158 3160 3162 3163 3164 3164 3165 3166 3166 3166 3167 3168 3169 3169 3170 3170 3171 3170 3170 3170 3170 3171 3171 3172 3173 3174 3175 3176 3177 3178 3179 3180 3181 3182 3183 3184 3186 3186 3187 3188 3188 3189 3190 3191 3191 3192 3192 3193 3193 3194 3194 3194 3194 3194 3194 3194 3193 3193 3193 3192 3191 3191 3190 3189 3189 3188 3187
3146 3146 3146 3147 3147 3147 3147 3147 3148 3148 3148 3149 3150 3151 3152 3153 3155 3156 3158 3160 3162 3163 3163 3164 3164 3165 3165 3166 3167 3167 3168 3169 3170 3170 3170 3170 3170 3169 3169 3170 3170 3171 3172 3173 3174 3175 3176 3177 3179 3180 3181 3182 3183 3185 3186 3186 3187 3188 3188 3189 3190 3191 3191 3192 3193 3193 3194 3194 3195 3195 3195 3195 3195 3195 3195 3194 3194 3193 3193 3192 3192 3191 3191 3190 3189
3145 3145 3145 3146 3145 3146 3146 3146 3146 3146 3146 3147 3148 3150 3152 3153 3155 3156 3158 3160 3161 3162 3163 3164 3164 3165 3165 3166 3166 3167 3168 3169 3169 3169 3170 3169 3169 3169 3169 3169 3169 3170 3171 3172 3173 3174 3175 3177 3178 3179 3180 3182 3183 3184 3185 3186 3187 3188 3188 3189 3190 3191 3191 3192 3193 3193 3194 3195 3195 3195 3195 3196 3196 3196 3196 3195 3195 3195 3194 3194 3193 3193 3192 3191 3191
3144 3144 3144 3144 3144 3144 3145 3145 3144 3144 3145 3146 3148 3149 3151 3153 3155 3156 3158 3159 3160 3161 3162 3163 3164 3165 3165 3166 3167 3167 3168 3168 3169 3169 3169 3169 3169 3168 3168 3168 3168 3169 3170 3171 3172 3173 3174 3176 3177 3178 3179 3181 3182 3184 3185 3185 3186 3187 3188 3189 3190 3190 3191 3192 3193 3193 3194 3195 3195 3196 3196 3196 3196 3196 3196 3196 3196 3196 3195 3195 3194 3194 3194 3193 3192
3143 3143 3143 3143 3143 3143 3143 3143 3143 3144 3145 3145 3146 3147 3149 3152 3155 3156 3158 3158 3159 3161 3163 3164 3164 3165 3166 3166 3167 3168 3168 3168 3168 3169 3169 3169 3169 3168 3168 3167 3167 3167 3168 3169 3170 3172 3173 3174 3176 3177 3178 3180 3181 3183 3184 3184 3185 3187 3187 3188 3189 3190 3191 3192 3192 3193 3194 3195 3195 3196 3196 3197 3197 3197 3197 3197 3197 3196 3196 3196 3195 3195 3195 3194 3194
3142 3142 3142 3142 3142 3142 3141 3142 3142 3143 3144 3145 3145 3145 3148 3152 3154 3156 3158 3158 3159 3161 3163 3164 3165 3166 3166 3167 3167 3168 3168 3168 3168 3168 3168 3168 3168 3168 3167 3167 3167 3167 3167 3168 3169 3170 3171 3173 3174 3176 3177 3179 3180 3182 3183 3184 3184 3186 3187 3188 3189 3190 3190 3191 3192 3193 3194 3195 3195 3196 3196 3197 3197 3197 3197 3197 3197 3197 3197 3197 3196 3196 3196 3195 3195
3140 3140 3140 3140 3141 3140 3139 3140 3141 3142 3144 3145 3144 3143 3147 3151 3154 3156 3157 3159 3160 3162 3163 3164 3165 3166 3167 3167 3167 3167 3168 3168 3168 3168 3168 3167 3167 3167 3167 3166 3166 3166 3167 3167 3168 3169 3170 3171 3173 3174 3176 3178 3179 3181 3182 3183 3184 3185 3186 3187 3188 3189 3190 3191 3191 3192 3193 3194 3195 3196 3197 3197 3197 3198 3198 3198 3198 3198 3197 3197 3197 3197 3196 3196 3196
3138 3138 3139 3139 3139 3138 3138 3138 3139 3142 3143 3144 3143 3144 3148 3151 3153 3155 3157 3160 3160 3161 3162 3164 3165 3165 3166 3167 3167 3167 3167 3167 3167 3167 3167 3167 3166 3166 3166 3166 3166 3166 3166 3166 3167 3168 3169 3170 3171 3173 3175 3176 3178 3180 3181 3182 3183 3184 3185 3186 3188 3188 3189 3190 3191 3192 3193 3194 3195 3196 3196 3197 3197 3198 3198 3198 3198 3198 3198 3198 3197 3197 3197 3197 3196
3137 3138 3138 3138 3138 3136 3136 3137 3138 3141 3142 3142 3143 3146 3149 3151 3153 3155 3157 3159 3159 3160 3162 3163 3164 3165 3166 3166 3166 3166 3166 3166 3167 3167 3166 3166 3165 3165 3164 3165 3165 3165 3165 3165 3166 3166 3167 3168 3170 3171 3173 3175 3177 3178 3180 3181 3182 3183 3184 3185 3187 3187 3188 3190 3191 3192 3192 3193 3194 3195 3196 3197 3197 3198 3198 3198 3198 3198 3198 3198 3198 3198 3197 3197 3197
3137 3137 3137 3137 3137 3136 3137 3138 3138 3139 3140 3140 3143 3146 3148 3149 3152 3154 3156 3157 3158 3160 3161 3162 3163 3164 3165 3165 3166 3165 3165 3166 3166 3166 3166 3165 3165 3164 3164 3164 3164 3164 3165 3165 3165 3166 3166 3167 3168 3170 3172 3173 3175 3177 3179 3180 3180 3182 3183 3184 3185 3186 3187 3189 3190 3191 3192 3193 3193 3194 3195 3196 3197 3197 3198 3198 3198 3198 3199 3198 3198 3198 3198 3197 3197
3135 3135 3136 3136 3137 3138 3139 3139 3138 3138 3138 3140 3143 3145 3146 3148 3151 3154 3155 3156 3158 3159 3160 3161 3163 3164 3165 3165 3165 3165 3165 3165 3166 3166 3165 3165 3164 3163 3163 3163 3163 3164 3164 3164 3165 3165 3166 3166 3167 3168 3170 3172 3173 3175 3177 3178 3179 3180 3182 3183 3184 3185 3186 3187 3188 3190 3191 3192 3193 3193 3194 3195 3196 3197 3197 3197 3198 3198 3199 3199 3198 3198 3198 3198 3198
3134 3134 3135 3136 3137 3137 3136 3136 3137 3136 3137 3140 3143 3144 3146 3148 3151 3154 3155 3156 3157 3158 3159 3161 3162 3163 3164 3165 3165 3165 3164 3164 3165 3165 3164 3164 3163 3163 3163 3163 3163 3163 3163 3164 3164 3165 3165 3166 3166 3167 3169 3170 3172 3173 3175 3177 3178 3179 3180 3181 3183 3184 3185 3186 3187 3188 3190 3191 3192 3193 3193 3194 3195 3196 3196 3197 3197 3198 3198 3198 3198 3198 3198 3198 3198
3132 3133 3135 3136 3136 3135 3133 3134 3137 3137 3138 3141 3143 3144 3146 3147 3151 3153 3154 3155 3156 3157 3159 3160 3162 3163 3163 3164 3165 3164 3164 3164 3164 3164 3163 3163 3162 3162 3162 3162 3162 3162 3163 3163 3163 3164 3165 3165 3166 3167 3168 3169 3170 3171 3173 3175 3176 3177 3179 3180 3181 3182 3183 3184 3185 3187 3188 3189 3190 3192 3192 3193 3194 3195 3195 3196 3197 3197 3198 3198 3198 3198 3198 3198 3198
3132 3133 3135 3135 3135 3133 3132 3134 3137 3138 3140 3142 3144 3145 3148 3149 3150 3152 3153 3154 3155 3156 3158 3160 3161 3162 3163 3164 3164 3163 3163 3163 3162 3162 3162 3162 3161 3161 3161 3162 3162 3162 3162 3163 3163 3163 3164 3165 3165 3166 3167 3168 3169 3170 3171 3172 3174 3176 3177 3178 3180 3180 3181 3183 3184 3185 3186 3187 3189 3190 3191 3192 3192 3193 3194 3195 3196 3196 3197 3197 3198 3198 3198 3198 3198
3131 3132 3134 3134 3133 3132 3132 3134 3137 3139 3141 3143 3144 3147 3149 3150 3150 3150 3152 3153 3154 3156 3157 3159 3160 3161 3162 3163 3163 3162 3162 3161 3161 3161 3161 3161 3160 3161 3161 3161 3162 3162 3162 3162 3162 3162 3163 3163 3164 3164 3165 3166 3168 3168 3169 3171 3172 3173 3175 3176 3178 3179 3180 3181 3182 3183 3184 3185 3186 3188 3189 3190 3191 3192 3193 3193 3194 3195 3196 3196 3197 3197 3197 3197 3198
3132 3132 3132 3133 3133 3132 3133 3136 3138 3141 3142 3143 3145 3147 3148 3150 3149 3148 3151 3153 3153 3155 3157 3158 3159 3160 3161 3162 3162 3161 3161 3160 3160 3160 3160 3160 3159 3160 3160 3161 3161 3161 3161 3162 3162 3162 3162 3162 3162 3163 3164 3165 3166 3167 3168 3169 3170 3171 3173 3174 3176 3177 3178 3180 3181 3182 3183 3183 3184 3186 3187 3188 3189 3190 3191 3192 3193 3194 3195 3195 3196 3196 3196 3197 3197
3132 3131 3131 3133 3133 3133 3135 3137 3139 3141 3142 3144 3146 3146 3148 3150 3150 3149 3151 3152 3153 3154 3156 3157 3158 3159 3160 3161 3161 3160 3160 3159 3159 3159 3159 3159 3159 3159 3160 3160 3161 3161 3161 3161 3161 3161 3162 3162 3162 3163 3163 3164 3165 3165 3166 3167 3168 3170 3171 3172 3174 3175 3177 3178 3179 3180 3181 3181 3182 3183 3185 3186 3188 3189 3189 3190 3191 3192 3193 3194 3194 3195 3195 3196 3196
3133 3131 3131 3133 3134 3134 3135 3135 3137 3140 3141 3143 3145 3145 3147 3150 3152 3151 3151 3151 3153 3154 3155 3156 3157 3159 3160 3160 3160 3159 3159 3159 3158 3158 3159 3159 3159 3159 3159 3159 3160 3160 3161 3161 3161 3161 3161 3161 3161 3162 3162 3163 3164 3164 3165 3166 3167 3168 3169 3170 3172 3173 3175 3176 3177 3178 3179 3180 3180 3181 3183 3184 3185 3187 3188 3189 3190 3191 3191 3192 3193 3194 3194 3195 3195
3132 3131 3132 3134 3135 3135 3135 3135 3136 3139 3139 3141 3144 3146 3146 3149 3151 3150 3149 3151 3152 3153 3154 3155 3157 3158 3158 3159 3159 3158 3158 3158 3158 3158 3158 3158 3158 3158 3158 3159 3159 3160 3160 3160 3161 3161 3161 3161 3161 3161 3161 3162 3163 3163 3164 3165 3166 3167 3168 3169 3170 3171 3173 3175 3176 3176 3177 3178 3179 3180 3181 3182 3184 3185 3186 3187 3188 3189 3190 3191 3191 3192 3193 3193 3194
3129 3130 3131 3134 3135 3135 3136 3136 3136 3138 3138 3139 3142 3145 3147 3148 3147 3146 3148 3151 3152 3152 3154 3155 3156 3156 3157 3157 3158 3158 3157 3157 3157 3157 3157 3157 3157 3158 3158 3158 3159 3160 3160 3160 3161 3161 3160 3160 3160 3160 3160 3161 3162 3162 3163 3164 3165 3166 3167 3168 3169 3170 3171 3173 3174 3175 3176 3177 3178 3178 3179 3180 3182 3183 3184 3185 3186 3187 3188 3189 3190 3190 3191 3192 3192
3128 3128 3130 3132 3133 3135 3136 3137 3138 3139 3140 3141 3142 3143 3144 3145 3145 3146 3149 3151 3152 3152 3153 3154 3155 3155 3155 3156 3157 3157 3156 3156 3156 3156 3156 3156 3157 3158 3158 3159 3159 3160 3160 3161 3161 3161 3161 3160 3160 3160 3160 3160 3161 3161 3162 3163 3164 3165 3166 3167 3168 3169 3170 3171 3172 3173 3175 3176 3177 3177 3178 3179 3180 3181 3183 3184 3185 3185 3186 3187 3188 3189 3189 3190 3191
3127 3127 3128 3130 3132 3136 3137 3138 3140 3140 3141 3143 3143 3142 3142 3145 3146 3147 3149 3150 3151 3152 3152 3153 3153 3154 3154 3154 3155 3155 3155 3155 3155 3155 3155 3156 3157 3158 3158 3159 3159 3159 3160 3160 3160 3160 3161 3161 3161 3160 3160 3160 3160 3161 3161 3162 3163 3164 3165 3166 3167 3168 3169 3170 3171 3172 3173 3174 3175 3176 3176 3177 3178 3179 3180 3182 3183 3184 3185 3185 3186 3187 3188 3188 3189
3127 3126 3127 3130 3132 3136 3137 3139 3141 3141 3142 3144 3145 3144 3143 3145 3147 3148 3149 3150 3150 3151 3151 3152 3152 3152 3152 3153 3153 3154 3154 3154 3154 3154 3155 3156 3156 3157 3158 3158 3158 3159 3159 3160 3160 3160 3160 3160 3160 3160 3160 3161 3161 3162 3162 3162 3163 3163 3165 3166 3166 3167 3168 3170 3171 3171 3172 3173 3174 3174 3175 3175 3176 3177 3178 3179 3181 3182 3183 3183 3184 3185 3186 3186 3187
3127 3126 3128 3131 3133 3135 3137 3138 3140 3141 3142 3144 3145 3146 3145 3146 3147 3148 3148 3149 3150 3150 3150 3150 3151 3151 3151 3151 3152 3153 3153 3153 3153 3154 3154 3155 3156 3156 3156 3157 3158 3159 3159 3160 3160 3160 3160 3160 3160 3160 3161 3162 3163 3163 3163 3163 3164 3164 3165 3165 3166 3167 3168 3169 3170 3170 3171 3172 3172 3173 3174 3174 3174 3175 3176 3177 3178 3179 3180 3181 3182 3183 3184 3184 3185
3128 3127 3129 3131 3133 3135 3136 3137 3139 3140 3142 3143 3145 3146 3147 3146 3146 3147 3148 3149 3149 3149 3149 3149 3149 3149 3150 3150 3151 3151 3151 3152 3152 3152 3153 3154 3155 3155 3155 3156 3158 3159 3159 3160 3160 3159 3159 3159 3160 3160 3162 3163 3163 3163 3163 3163 3164 3165 3165 3165 3166 3167 3167 3168 3169 3169 3170 3171 3172 3173 3173 3174 3174 3174 3175 3176 3176 3177 3178 3179 3180 3180 3181 3182 3183
3128 3128 3129 3130 3132 3134 3135 3137 3138 3140 3142 3143 3144 3146 3147 3147 3146 3147 3148 3149 3149 3149 3148 3148 3147 3147 3148 3149 3149 3149 3150 3151 3151 3151 3152 3152 3153 3154 3155 3156 3157 3158 3159 3159 3160 3160 3159 3158 3159 3160 3162 3162 3163 3163 3163 3163 3164 3165 3165 3165 3166 3166 3167 3168 3168 3168 3169 3169 3170 3171 3172 3173 3174 3174 3175 3175 3176 3176 3177 3177 3178 3179 3180 3181 3181
3129 3129 3129 3130 3132 3133 3135 3138 3141 3142 3143 3144 3145 3146 3147 3147 3147 3147 3148 3149 3148 3147 3147 3146 3146 3146 3146 3147 3148 3147 3148 3150 3149 3149 3151 3151 3152 3153 3155 3156 3156 3156 3158 3158 3159 3160 3160 3159 3159 3160 3161 3162 3162 3163 3163 3164 3164 3165 3165 3166 3166 3166 3166 3167 3167 3167 3167 3168 3169 3170 3170 3172 3173 3173 3174 3175 3175 3175 3176 3176 3177 3177 3178 3179 3180
3129 3129 3129 3130 3132 3134 3136 3139 3141 3142 3143 3144 3145 3146 3146 3147 3147 3147 3147 3147 3147 3146 3145 3145 3144 3144 3144 3145 3145 3145 3146 3149 3149 3148 3149 3150 3151 3153 3154 3155 3155 3156 3157 3158 3158 3159 3160 3159 3158 3160 3160 3161 3162 3162 3163 3163 3164 3165 3165 3165 3165 3166 3166 3166 3166 3166 3166 3167 3168 3168 3169 3170 3171 3172 3172 3173 3173 3173 3174 3175 3176 3176 3177 3178 3178
3128 3129 3130 3130 3132 3134 3137 3139 3141 3141 3142 3143 3145 3146 3146 3147 3147 3147 3146 3146 3146 3145 3144 3144 3143 3142 3142 3143 3144 3144 3145 3147 3148 3147 3148 3149 3150 3152 3153 3154 3154 3155 3156 3157 3157 3158 3158 3156 3156 3159 3160 3161 3161 3161 3162 3163 3163 3164 3164 3165 3165 3165 3165 3165 3165 3165 3165 3166 3166 3166 3167 3168 3169 3170 3170 3171 3172 3172 3173 3174 3174 3175 3176 3176 3176
3127 3128 3129 3131 3132 3134 3136 3138 3139 3140 3141 3143 3144 3145 3146 3146 3146 3146 3146 3146 3145 3144 3143 3143 3142 3141 3141 3142 3142 3143 3143 3144 3146 3147 3148 3149 3150 3151 3152 3153 3153 3154 3155 3156 3156 3157 3157 3154 3153 3157 3160 3160 3160 3160 3161 3161 3162 3162 3163 3164 3164 3164 3164 3164 3164 3164 3164 3165 3165 3165 3166 3166 3167 3168 3168 3169 3171 3172 3172 3172 3172 3173 3174 3174 3175
3126 3128 3129 3131 3132 3133 3135 3137 3138 3140 3141 3142 3143 3145 3145 3145 3146 3146 3146 3145 3144 3143 3143 3142 3141 3141 3141 3141 3141 3142 3142 3143 3144 3145 3147 3148 3149 3150 3151 3152 3152 3153 3153 3154 3155 3155 3155 3154 3152 3155 3158 3159 3159 3159 3159 3160 3161 3161 3162 3162 3163 3162 3162 3163 3163 3163 3163 3163 3163 3163 3164 3165 3165 3165 3166 3168 3169 3170 3170 3170 3171 3171 3172 3172 3172
3126 3127 3128 3130 3131 3133 3134 3135 3136 3138 3140 3141 3142 3143 3144 3144 3145 3145 3145 3144 3143 3143 3142 3141 3141 3140 3140 3140 3141 3141 3142 3143 3143 3144 3145 3146 3147 3148 3149 3150 3151 3152 3152 3153 3154 3154 3154 3153 3152 3153 3157 3158 3158 3158 3158 3159 3159 3160 3160 3161 3161 3161 3161 3161 3161 3161 3161 3162 3162 3162 3162 3163 3163 3164 3165 3166 3167 3167 3168 3168 3168 3169 3169 3169 3169
3126 3127 3128 3129 3130 3132 3133 3134 3135 3137 3139 3141 3141 3142 3143 3144 3144 3144 3144 3144 3143 3142 3141 3141 3140 3140 3139 3140 3140 3141 3141 3142 3143 3144 3144 3145 3146 3146 3147 3148 3149 3150 3151 3151 3152 3153 3153 3153 3152 3153 3155 3156 3157 3157 3157 3158 3158 3158 3159 3160 3160 3160 3160 3160 3160 3160 3160 3160 3161 3161 3161 3161 3161 3162 3164 3165 3165 3166 3166 3167 3167 3167 3167 3167 3167
3125 3126 3127 3128 3129 3130 3132 3133 3135 3137 3139 3140 3141 3142 3143 3143 3144 3144 3143 3143 3142 3142 3141 3140 3140 3139 3139 3139 3139 3140 3141 3141 3142 3143 3143 3144 3145 3145 3146 3147 3148 3149 3149 3150 3150 3151 3152 3153 3153 3153 3154 3154 3155 3156 3156 3157 3157 3157 3157 3158 3159 3158 3158 3158 3158 3159 3159 3159 3159 3160 3160 3161 3161 3162 3163 3164 3164 3165 3165 3165 3165 3164 3165 3165 3165
3124 3125 3125 3126 3128 3130 3132 3134 3136 3138 3139 3140 3141 3142 3143 3143 3143 3143 3143 3142 3142 3141 3140 3140 3139 3139 3138 3138 3138 3139 3140 3140 3141 3141 3142 3143 3144 3144 3145 3146 3147 3148 3148 3149 3150 3150 3151 3152 3152 3152 3153 3153 3154 3155 3156 3156 3156 3156 3156 3156 3157 3157 3156 3156 3157 3158 3158 3158 3158 3159 3159 3160 3161 3161 3163 3163 3163 3163 3163 3163 3163 3163 3163 3163 3164
3122 3122 3123 3125 3127 3130 3132 3135 3137 3139 3140 3141 3142 3142 3142 3142 3142 3142 3142 3142 3141 3140 3140 3139 3139 3139 3138 3138 3138 3138 3139 3139 3140 3140 3141 3141 3142 3143 3144 3145 3146 3146 3147 3148 3148 3149 3149 3150 3150 3150 3151 3151 3152 3153 3154 3154 3154 3154 3154 3155 3155 3155 3155 3155 3156 3156 3157 3157 3158 3158 3159 3159 3159 3160 3161 3161 3161 3161 3161 3161 3161 3161 3161 3162 3162
3121 3123 3123 3125 3127 3130 3134 3136 3138 3140 3141 3142 3142 3142 3142 3142 3142 3142 3142 3142 3141 3141 3140 3139 3139 3138 3138 3138 3138 3138 3138 3138 3138 3139 3139 3140 3141 3142 3142 3143 3144 3145 3145 3146 3146 3146 3147 3147 3147 3147 3148 3149 3150 3151 3152 3152 3152 3152 3152 3153 3153 3154 3154 3154 3155 3155 3155 3156 3157 3157 3158 3158 3158 3158 3159 3159 3159 3160 3160 3160 3160 3160 3160 3160 3160
3121 3119 3117 3119 3124 3130 3135 3137 3138 3139 3140 3141 3142 3142 3142 3142 3142 3142 3142 3142 3142 3142 3141 3140 3139 3138 3138 3137 3137 3137 3137 3138 3138 3138 3139 3140 3140 3141 3142 3142 3142 3143 3143 3143 3143 3144 3144 3144 3144 3144 3145 3146 3147 3149 3149 3150 3151 3151 3151 3151 3152 3152 3153 3153 3154 3154 3154 3155 3156 3156 3156 3156 3157 3157 3157 3158 3158 3158 3158 3158 3159 3159 3159 3159 3159
3112 3110 3113 3120 3126 3132 3135 3136 3136 3137 3139 3140 3141 3141 3142 3142 3143 3143 3143 3143 3143 3142 3142 3142 3141 3140 3139 3138 3137 3136 3136 3137 3137 3138 3138 3139 3140 3140 3141 3141 3141 3141 3141 3141 3141 3142 3142 3142 3142 3142 3143 3144 3145 3147 3148 3149 3150 3150 3150 3150 3151 3152 3152 3153 3153 3153 3153 3154 3155 3155 3155 3155 3155 3156 3156 3156 3156 3156 3157 3157 3157 3157 3158 3158 3158
3112 3117 3123 3127 3130 3133 3135 3135 3135 3137 3137 3138 3139 3140 3141 3142 3142 3142 3142 3142 3142 3142 3142 3142 3142 3141 3140 3139 3138 3137 3136 3136 3136 3136 3137 3138 3138 3139 3139 3139 3139 3139 3140 3140 3140 3140 3140 3140 3140 3141 3141 3142 3144 3145 3146 3148 3149 3149 3149 3150 3150 3151 3151 3152 3152 3152 3152 3153 3154 3154 3154 3154 3154 3154 3154 3155 3155 3155 3155 3156 3156 3156 3156 3156 3156
3122 3126 3128 3127 3129 3133 3134 3134 3135 3136 3137 3138 3138 3139 3140 3141 3141 3141 3141 3141 3142 3142 3142 3142 3142 3142 3141 3140 3139 3138 3137 3136 3136 3136 3136 3136 3137 3137 3138 3138 3138 3138 3139 3139 3139 3139 3139 3139 3139 3140 3140 3141 3142 3144 3145 3146 3148 3148 3149 3149 3150 3150 3151 3151 3151 3151 3151 3152 3153 3153 3153 3153 3153 3153 3153 3153 3153 3154 3154 3154 3154 3155 3155 3155 3155
3124 3126 3126 3126 3126 3127 3129 3132 3134 3135 3136 3137 3138 3139 3139 3140 3140 3140 3140 3141 3141 3141 3141 3142 3142 3141 3141 3140 3139 3139 3138 3137 3136 3136 3136 3136 3136 3137 3137 3137 3137 3138 3138 3138 3138 3138 3139 3139 3139 3139 3139 3140 3141 3142 3144 3145 3147 3147 3148 3149 3149 3149 3150 3150 3150 3150 3149 3150 3151 3152 3152 3152 3152 3152 3152 3152 3152 3152 3152 3152 3153 3153 3153 3153 3153
3123 3124 3123 3124 3126 3126 3128 3131 3132 3134 3136 3137 3138 3139 3139 3139 3140 3140 3140 3140 3140 3141 3141 3141 3141 3141 3140 3140 3139 3138 3138 3137 3137 3137 3136 3136 3136 3137 3137 3137 3137 3137 3138 3138 3138 3138 3138 3139 3139 3139 3138 3139 3140 3142 3143 3144 3145 3146 3147 3148 3148 3149 3149 3149 3149 3149 3148 3149 3150 3150 3150 3150 3151 3151 3151 3152 3152 3152 3152 3152 3152 3151 3151 3152 3152